Tracking 35331 objects as of 16-Sep-2026
HD Live streaming from Space Station
objects crossing your sky now

OBJECT AA

Track OBJECT AA now!
10-day predictions


NORAD ID: 47437
Int'l Code: 2021-006AA
Launch date: January 24, 2021
Source: (TBD)
Launch site: AIR FORCE EASTERN TEST RANGE (AFETR)
Your satellite tracking list
Your tracking list is empty




NASA's NSSDC Master Catalog

Two Line Element Set (TLE):
1 47437U 21006AA  26258.57400808  .00004215  00000-0  14006-3 0  9995
2 47437  97.2158 297.1629 0007068 232.7377 127.3221 15.31709250313151
Source of the keplerian elements: AFSPC